Time,TemperatureF,DewpointF,PressureIn,WindDirection,WindDirectionDegrees,WindSpeedMPH,WindSpeedGustMPH,Humidity,HourlyPrecipIn,Conditions,Clouds,dailyrainin,SolarRadiationWatts/m^2,SoftwareType,DateUTC
2013-06-03 00:02:00,53.2,43.0,30.04,West,268,0.0,0.0,68,0.00,,,0.00,0.0,meteohub,2013-06-03 05:02:00,
2013-06-03 00:07:00,52.9,42.6,30.04,West,268,0.0,0.0,68,0.00,,,0.00,0.0,meteohub,2013-06-03 05:07:00,
2013-06-03 00:12:00,52.5,43.7,30.04,West,268,0.0,0.0,72,0.00,,,0.00,0.0,meteohub,2013-06-03 05:12:00,
2013-06-03 00:17:00,52.2,42.6,30.04,West,268,0.0,0.0,70,0.00,,,0.00,0.0,meteohub,2013-06-03 05:17:00,
2013-06-03 00:22:00,52.0,43.9,30.04,West,268,0.0,0.0,74,0.00,,,0.00,0.0,meteohub,2013-06-03 05:22:00,
2013-06-03 00:27:00,52.0,43.9,30.04,West,268,0.0,0.0,74,0.00,,,0.00,0.0,meteohub,2013-06-03 05:27:00,
2013-06-03 00:32:00,51.6,43.3,30.04,West,268,0.0,0.0,73,0.00,,,0.00,0.0,meteohub,2013-06-03 05:32:00,
2013-06-03 00:37:00,51.6,43.3,30.04,West,268,0.0,0.0,73,0.00,,,0.00,0.0,meteohub,2013-06-03 05:37:00,
2013-06-03 00:42:00,51.6,42.4,30.04,West,268,0.0,0.0,71,0.00,,,0.00,0.0,meteohub,2013-06-03 05:42:00,
2013-06-03 00:47:00,51.4,42.4,30.04,West,268,0.0,0.0,71,0.00,,,0.00,0.0,meteohub,2013-06-03 05:47:00,
2013-06-03 00:52:00,51.4,42.4,30.04,West,268,0.0,0.0,71,0.00,,,0.00,0.0,meteohub,2013-06-03 05:52:00,
2013-06-03 00:57:00,51.3,42.6,30.04,West,268,0.0,0.0,72,0.00,,,0.00,0.0,meteohub,2013-06-03 05:57:00,
2013-06-03 01:02:00,51.3,42.6,30.04,West,268,0.0,0.0,72,0.00,,,0.00,0.0,meteohub,2013-06-03 06:02:00,
2013-06-03 01:08:00,50.9,43.0,30.04,West,268,0.0,0.0,74,0.00,,,0.00,0.0,meteohub,2013-06-03 06:08:00,
2013-06-03 01:13:00,50.5,43.0,30.04,West,268,0.0,0.0,75,0.00,,,0.00,0.0,meteohub,2013-06-03 06:13:00,
2013-06-03 01:18:00,50.4,42.8,30.04,West,268,0.0,0.0,75,0.00,,,0.00,0.0,meteohub,2013-06-03 06:18:00,
2013-06-03 01:23:00,50.2,43.0,30.04,West,268,0.0,0.0,76,0.00,,,0.00,0.0,meteohub,2013-06-03 06:23:00,
2013-06-03 01:28:00,50.2,42.3,30.04,West,268,0.0,0.0,74,0.00,,,0.00,0.0,meteohub,2013-06-03 06:28:00,
2013-06-03 01:33:00,50.0,42.4,30.04,West,268,0.0,0.0,75,0.00,,,0.00,0.0,meteohub,2013-06-03 06:33:00,
2013-06-03 01:38:00,49.8,42.6,30.04,West,268,0.0,0.0,76,0.00,,,0.00,0.0,meteohub,2013-06-03 06:38:00,
2013-06-03 01:43:00,49.6,43.0,30.04,West,268,0.0,0.0,78,0.00,,,0.00,0.0,meteohub,2013-06-03 06:43:00,
2013-06-03 01:48:00,49.3,43.3,30.04,West,268,0.0,0.0,80,0.00,,,0.00,0.0,meteohub,2013-06-03 06:48:00,
2013-06-03 01:53:00,49.1,42.8,30.04,West,268,0.0,0.0,79,0.00,,,0.00,0.0,meteohub,2013-06-03 06:53:00,
2013-06-03 01:58:00,49.3,42.8,30.04,West,268,0.0,0.0,78,0.00,,,0.00,0.0,meteohub,2013-06-03 06:58:00,
2013-06-03 02:03:00,49.3,43.0,30.04,West,268,0.0,0.0,79,0.00,,,0.00,0.0,meteohub,2013-06-03 07:03:00,
2013-06-03 02:08:00,49.1,42.8,30.04,West,268,0.0,0.0,79,0.00,,,0.00,0.0,meteohub,2013-06-03 07:08:00,
2013-06-03 02:13:00,48.9,43.3,30.04,West,268,0.0,0.0,81,0.00,,,0.00,0.0,meteohub,2013-06-03 07:13:00,
2013-06-03 02:18:00,48.4,43.2,30.04,West,268,0.0,0.0,82,0.00,,,0.00,0.0,meteohub,2013-06-03 07:18:00,
2013-06-03 02:23:00,48.2,43.5,30.04,West,268,0.0,0.0,84,0.00,,,0.00,0.0,meteohub,2013-06-03 07:23:00,
2013-06-03 02:28:00,48.4,42.8,30.03,West,268,0.0,0.0,81,0.00,,,0.00,0.0,meteohub,2013-06-03 07:28:00,
2013-06-03 02:33:00,48.4,43.2,30.03,West,268,0.0,0.0,82,0.00,,,0.00,0.0,meteohub,2013-06-03 07:33:00,
2013-06-03 02:38:00,48.4,42.4,30.03,West,268,0.0,0.0,80,0.00,,,0.00,0.0,meteohub,2013-06-03 07:38:00,
2013-06-03 02:43:00,48.6,43.0,30.03,West,268,0.0,0.0,81,0.00,,,0.00,0.0,meteohub,2013-06-03 07:43:00,
2013-06-03 02:48:00,48.6,42.3,30.03,West,268,0.0,0.0,79,0.00,,,0.00,0.0,meteohub,2013-06-03 07:48:00,
2013-06-03 02:53:00,48.6,43.0,30.03,West,268,0.0,0.0,81,0.00,,,0.00,0.0,meteohub,2013-06-03 07:53:00,
2013-06-03 02:58:00,47.5,43.2,30.03,West,268,0.0,0.0,85,0.00,,,0.00,0.0,meteohub,2013-06-03 07:58:00,
2013-06-03 03:03:00,46.8,42.8,30.02,West,268,0.0,0.0,86,0.00,,,0.00,0.0,meteohub,2013-06-03 08:03:00,
2013-06-03 03:08:00,47.1,42.8,30.02,West,268,0.0,0.0,85,0.00,,,0.00,0.0,meteohub,2013-06-03 08:08:00,
2013-06-03 03:13:00,46.9,43.0,30.03,West,268,0.0,0.0,86,0.00,,,0.00,0.0,meteohub,2013-06-03 08:13:00,
2013-06-03 03:18:00,45.9,42.3,30.03,West,268,0.0,0.0,87,0.00,,,0.00,0.0,meteohub,2013-06-03 08:18:00,
2013-06-03 03:23:00,45.5,42.8,30.03,West,268,0.0,0.0,90,0.00,,,0.00,0.0,meteohub,2013-06-03 08:23:00,
2013-06-03 03:28:00,45.7,43.0,30.03,West,268,0.0,0.0,90,0.00,,,0.00,0.0,meteohub,2013-06-03 08:28:00,
2013-06-03 03:33:00,46.2,42.6,30.02,West,268,0.0,0.0,87,0.00,,,0.00,0.0,meteohub,2013-06-03 08:33:00,
2013-06-03 03:38:00,46.8,42.8,30.03,West,268,0.0,0.0,86,0.00,,,0.00,0.0,meteohub,2013-06-03 08:38:00,
2013-06-03 03:43:00,46.9,42.6,30.03,West,268,0.0,0.0,85,0.00,,,0.00,0.0,meteohub,2013-06-03 08:43:00,
2013-06-03 03:48:00,46.9,42.6,30.03,West,268,0.0,0.0,85,0.00,,,0.00,0.0,meteohub,2013-06-03 08:48:00,
2013-06-03 03:53:00,47.1,42.6,30.03,West,268,0.0,0.0,84,0.00,,,0.00,0.0,meteohub,2013-06-03 08:53:00,
2013-06-03 03:58:00,47.1,42.6,30.03,West,268,0.0,0.0,84,0.00,,,0.00,0.0,meteohub,2013-06-03 08:58:00,
2013-06-03 04:03:00,47.1,42.6,30.03,West,268,0.0,0.0,84,0.00,,,0.00,0.0,meteohub,2013-06-03 09:03:00,
2013-06-03 04:08:00,46.9,42.6,30.03,West,268,0.0,0.0,85,0.00,,,0.00,0.0,meteohub,2013-06-03 09:08:00,
2013-06-03 04:13:00,46.9,42.1,30.03,West,268,0.0,0.0,83,0.00,,,0.00,0.0,meteohub,2013-06-03 09:13:00,
2013-06-03 04:18:00,46.9,42.6,30.03,West,268,0.0,0.0,85,0.00,,,0.00,0.0,meteohub,2013-06-03 09:18:00,
2013-06-03 04:23:00,46.9,42.4,30.03,West,268,0.0,0.0,84,0.00,,,0.00,0.0,meteohub,2013-06-03 09:23:00,
2013-06-03 04:29:00,46.9,42.6,30.03,West,268,0.0,0.0,85,0.00,,,0.00,0.0,meteohub,2013-06-03 09:29:00,
2013-06-03 04:34:00,46.6,42.6,30.03,West,268,0.0,0.0,86,0.00,,,0.00,0.0,meteohub,2013-06-03 09:34:00,
2013-06-03 04:39:00,45.5,42.1,30.03,West,268,0.0,0.0,88,0.00,,,0.00,0.0,meteohub,2013-06-03 09:39:00,
2013-06-03 04:44:00,45.5,42.4,30.03,West,268,0.0,0.0,89,0.00,,,0.00,0.0,meteohub,2013-06-03 09:44:00,
2013-06-03 04:49:00,45.3,42.3,30.03,West,268,0.0,0.0,89,0.00,,,0.00,0.0,meteohub,2013-06-03 09:49:00,
2013-06-03 04:54:00,45.3,42.3,30.03,West,268,0.0,0.0,89,0.00,,,0.00,0.0,meteohub,2013-06-03 09:54:00,
2013-06-03 04:59:00,45.3,42.3,30.04,West,268,0.0,0.0,89,0.00,,,0.00,0.0,meteohub,2013-06-03 09:59:00,
2013-06-03 05:04:00,45.1,42.1,30.04,West,268,0.0,0.0,89,0.00,,,0.00,0.0,meteohub,2013-06-03 10:04:00,
2013-06-03 05:09:00,45.1,42.1,30.04,West,268,0.0,0.0,89,0.00,,,0.00,0.0,meteohub,2013-06-03 10:09:00,
2013-06-03 05:14:00,44.8,41.7,30.04,West,268,0.0,0.0,89,0.00,,,0.00,0.0,meteohub,2013-06-03 10:14:00,
2013-06-03 05:19:00,44.2,41.7,30.04,West,268,0.0,0.0,91,0.00,,,0.00,0.0,meteohub,2013-06-03 10:19:00,
2013-06-03 05:24:00,44.2,41.7,30.03,West,268,0.0,0.0,91,0.00,,,0.00,0.0,meteohub,2013-06-03 10:24:00,
2013-06-03 05:29:00,44.4,41.7,30.03,West,268,0.0,0.0,90,0.00,,,0.00,0.0,meteohub,2013-06-03 10:29:00,
2013-06-03 05:34:00,44.4,41.4,30.03,West,268,0.0,0.0,89,0.00,,,0.00,0.0,meteohub,2013-06-03 10:34:00,
2013-06-03 05:39:00,44.4,41.4,30.04,West,268,0.0,0.0,89,0.00,,,0.00,0.0,meteohub,2013-06-03 10:39:00,
2013-06-03 05:44:00,44.4,41.4,30.04,West,268,0.0,0.0,89,0.00,,,0.00,5.0,meteohub,2013-06-03 10:44:00,
2013-06-03 05:49:00,44.6,41.5,30.04,West,268,0.0,0.0,89,0.00,,,0.00,7.0,meteohub,2013-06-03 10:49:00,
2013-06-03 05:54:00,44.6,41.9,30.04,West,268,0.0,0.0,90,0.00,,,0.00,7.0,meteohub,2013-06-03 10:54:00,
2013-06-03 05:59:00,44.8,42.1,30.04,West,268,0.0,0.0,90,0.00,,,0.00,9.0,meteohub,2013-06-03 10:59:00,
2013-06-03 06:04:00,45.0,42.3,30.04,West,268,0.0,0.0,90,0.00,,,0.00,11.0,meteohub,2013-06-03 11:04:00,
2013-06-03 06:09:00,44.6,41.9,30.03,West,268,0.0,0.0,90,0.00,,,0.00,11.0,meteohub,2013-06-03 11:09:00,
2013-06-03 06:14:00,44.6,42.1,30.03,West,268,0.0,0.0,91,0.00,,,0.00,11.0,meteohub,2013-06-03 11:14:00,
2013-06-03 06:19:00,44.8,42.3,30.03,West,268,0.0,0.0,91,0.00,,,0.00,11.0,meteohub,2013-06-03 11:19:00,
2013-06-03 06:24:00,45.0,42.3,30.03,West,268,0.0,0.0,90,0.00,,,0.00,12.0,meteohub,2013-06-03 11:24:00,
2013-06-03 06:29:00,45.3,42.6,30.03,West,268,0.0,0.0,90,0.00,,,0.00,14.0,meteohub,2013-06-03 11:29:00,
2013-06-03 06:34:00,45.9,43.2,30.04,West,268,0.0,0.0,90,0.00,,,0.00,18.0,meteohub,2013-06-03 11:34:00,
2013-06-03 06:39:00,46.0,43.3,30.04,West,268,0.0,0.0,90,0.00,,,0.00,19.0,meteohub,2013-06-03 11:39:00,
2013-06-03 06:44:00,46.0,43.5,30.04,West,270,0.0,0.0,91,0.00,,,0.00,21.0,meteohub,2013-06-03 11:44:00,
2013-06-03 06:49:00,46.0,43.5,30.04,West,270,0.0,0.0,91,0.00,,,0.00,23.0,meteohub,2013-06-03 11:49:00,
2013-06-03 06:54:00,46.8,43.7,30.04,West,270,0.0,0.0,89,0.00,,,0.00,25.0,meteohub,2013-06-03 11:54:00,
2013-06-03 06:59:00,47.5,44.1,30.04,West,270,0.0,0.0,88,0.00,,,0.00,26.0,meteohub,2013-06-03 11:59:00,
2013-06-03 07:04:00,48.4,44.4,30.03,West,270,0.0,0.0,86,0.00,,,0.00,42.0,meteohub,2013-06-03 12:04:00,
2013-06-03 07:09:00,49.3,44.6,30.03,West,270,0.0,0.0,84,0.00,,,0.00,39.0,meteohub,2013-06-03 12:09:00,
2013-06-03 07:14:00,49.8,44.6,30.03,West,270,0.0,0.0,82,0.00,,,0.00,47.0,meteohub,2013-06-03 12:14:00,
2013-06-03 07:19:00,50.4,45.1,30.03,SE,142,0.0,0.0,82,0.00,,,0.00,40.0,meteohub,2013-06-03 12:19:00,
2013-06-03 07:24:00,50.7,45.5,30.03,SE,142,0.0,1.0,82,0.00,,,0.00,37.0,meteohub,2013-06-03 12:24:00,
2013-06-03 07:29:00,51.6,45.3,30.03,NNW,337,0.0,1.0,79,0.00,,,0.00,37.0,meteohub,2013-06-03 12:29:00,
2013-06-03 07:34:00,52.5,45.9,30.03,NNW,337,0.0,1.0,78,0.00,,,0.00,42.0,meteohub,2013-06-03 12:34:00,
2013-06-03 07:39:00,53.2,45.5,30.02,North,5,1.0,1.0,75,0.00,,,0.00,44.0,meteohub,2013-06-03 12:39:00,
2013-06-03 07:44:00,54.0,46.2,30.03,NNE,13,0.0,2.0,75,0.00,,,0.00,46.0,meteohub,2013-06-03 12:44:00,
2013-06-03 07:49:00,54.1,45.7,30.03,WNW,296,0.0,2.0,73,0.00,,,0.00,46.0,meteohub,2013-06-03 12:49:00,
2013-06-03 07:54:00,54.3,46.6,30.03,WNW,296,0.0,2.0,75,0.00,,,0.00,56.0,meteohub,2013-06-03 12:54:00,
2013-06-03 07:59:00,54.5,45.7,30.03,SW,223,0.0,2.0,72,0.00,,,0.00,279.0,meteohub,2013-06-03 12:59:00,
2013-06-03 08:04:00,55.0,46.9,30.03,WNW,284,0.0,2.0,74,0.00,,,0.00,287.0,meteohub,2013-06-03 13:04:00,
2013-06-03 08:09:00,55.6,47.1,30.03,NE,43,0.0,3.0,73,0.00,,,0.00,322.0,meteohub,2013-06-03 13:09:00,
2013-06-03 08:14:00,56.5,47.1,30.03,ESE,119,0.0,3.0,71,0.00,,,0.00,339.0,meteohub,2013-06-03 13:14:00,
2013-06-03 08:19:00,57.0,47.3,30.03,SW,218,0.0,3.0,70,0.00,,,0.00,348.0,meteohub,2013-06-03 13:19:00,
2013-06-03 08:24:00,57.7,47.7,30.04,North,355,1.0,3.0,69,0.00,,,0.00,369.0,meteohub,2013-06-03 13:24:00,
2013-06-03 08:29:00,57.9,46.9,30.04,NNW,335,0.0,3.0,67,0.00,,,0.00,385.0,meteohub,2013-06-03 13:29:00,
2013-06-03 08:34:00,58.5,49.5,30.04,NNW,346,0.0,3.0,72,0.00,,,0.00,396.0,meteohub,2013-06-03 13:34:00,
2013-06-03 08:39:00,58.8,47.5,30.04,East,92,0.0,3.0,66,0.00,,,0.00,394.0,meteohub,2013-06-03 13:39:00,
2013-06-03 08:44:00,59.4,48.7,30.04,ENE,61,0.0,3.0,68,0.00,,,0.00,431.0,meteohub,2013-06-03 13:44:00,
2013-06-03 08:49:00,60.3,48.9,30.04,West,265,0.0,4.0,66,0.00,,,0.00,446.0,meteohub,2013-06-03 13:49:00,
2013-06-03 08:54:00,60.4,47.8,30.03,NNE,13,1.0,4.0,63,0.00,,,0.00,478.0,meteohub,2013-06-03 13:54:00,
2013-06-03 08:59:00,61.3,49.1,30.03,South,184,0.0,4.0,64,0.00,,,0.00,473.0,meteohub,2013-06-03 13:59:00,
2013-06-03 09:04:00,61.9,50.4,30.04,WNW,298,0.0,3.0,66,0.00,,,0.00,408.0,meteohub,2013-06-03 14:04:00,
2013-06-03 09:09:00,61.3,49.5,30.03,WNW,294,0.0,3.0,65,0.00,,,0.00,404.0,meteohub,2013-06-03 14:09:00,
2013-06-03 09:14:00,61.5,48.0,30.03,NW,325,1.0,3.0,61,0.00,,,0.00,543.0,meteohub,2013-06-03 14:14:00,
2013-06-03 09:19:00,62.8,47.8,30.03,WNW,292,0.0,4.0,58,0.00,,,0.00,540.0,meteohub,2013-06-03 14:19:00,
2013-06-03 09:24:00,63.0,49.3,30.03,WNW,292,0.0,4.0,61,0.00,,,0.00,587.0,meteohub,2013-06-03 14:24:00,
2013-06-03 09:30:00,63.3,48.7,30.02,NNW,330,2.0,4.0,59,0.00,,,0.00,540.0,meteohub,2013-06-03 14:30:00,
2013-06-03 09:35:00,63.9,46.9,30.03,West,276,4.0,4.0,54,0.00,,,0.00,445.0,meteohub,2013-06-03 14:35:00,
2013-06-03 09:40:00,63.7,48.6,30.03,NNE,25,2.0,8.0,58,0.00,,,0.00,257.0,meteohub,2013-06-03 14:40:00,
2013-06-03 09:45:00,63.3,48.4,30.03,West,262,1.0,8.0,58,0.00,,,0.00,243.0,meteohub,2013-06-03 14:45:00,
2013-06-03 09:50:00,62.8,48.7,30.03,WNW,293,0.0,4.0,60,0.00,,,0.00,248.0,meteohub,2013-06-03 14:50:00,
2013-06-03 09:55:00,62.6,48.9,30.03,NW,325,1.0,3.0,61,0.00,,,0.00,236.0,meteohub,2013-06-03 14:55:00,
2013-06-03 10:00:00,62.8,49.6,30.03,NNE,15,0.0,3.0,62,0.00,,,0.00,290.0,meteohub,2013-06-03 15:00:00,
2013-06-03 10:05:00,63.3,47.3,30.03,North,351,1.0,4.0,56,0.00,,,0.00,322.0,meteohub,2013-06-03 15:05:00,
2013-06-03 10:10:00,63.3,46.9,30.02,North,355,0.0,4.0,55,0.00,,,0.00,290.0,meteohub,2013-06-03 15:10:00,
2013-06-03 10:15:00,63.9,46.9,30.03,NE,54,3.0,4.0,54,0.00,,,0.00,281.0,meteohub,2013-06-03 15:15:00,
2013-06-03 10:20:00,63.9,47.8,30.02,NNW,334,1.0,3.0,56,0.00,,,0.00,292.0,meteohub,2013-06-03 15:20:00,
2013-06-03 10:25:00,64.0,50.4,30.02,NW,315,1.0,3.0,61,0.00,,,0.00,274.0,meteohub,2013-06-03 15:25:00,
2013-06-03 10:30:00,64.0,47.5,30.02,NNW,335,0.0,3.0,55,0.00,,,0.00,281.0,meteohub,2013-06-03 15:30:00,
2013-06-03 10:35:00,64.0,51.3,30.02,NE,49,0.0,4.0,63,0.00,,,0.00,272.0,meteohub,2013-06-03 15:35:00,
2013-06-03 10:40:00,64.2,49.1,30.02,NNW,343,0.0,4.0,58,0.00,,,0.00,241.0,meteohub,2013-06-03 15:40:00,
2013-06-03 10:45:00,64.2,49.6,30.02,North,0,0.0,4.0,59,0.00,,,0.00,232.0,meteohub,2013-06-03 15:45:00,
2013-06-03 10:50:00,64.2,48.7,30.02,North,0,0.0,4.0,57,0.00,,,0.00,202.0,meteohub,2013-06-03 15:50:00,
2013-06-03 10:55:00,64.0,47.5,30.02,ENE,63,0.0,4.0,55,0.00,,,0.00,202.0,meteohub,2013-06-03 15:55:00,
2013-06-03 11:00:00,63.9,50.2,30.02,SW,215,1.0,4.0,61,0.00,,,0.00,213.0,meteohub,2013-06-03 16:00:00,
2013-06-03 11:05:00,63.7,47.7,30.02,NNW,333,2.0,4.0,56,0.00,,,0.00,181.0,meteohub,2013-06-03 16:05:00,
2013-06-03 11:10:00,63.7,50.4,30.02,West,276,1.0,4.0,62,0.00,,,0.00,146.0,meteohub,2013-06-03 16:10:00,
2013-06-03 11:15:00,63.5,48.4,30.02,WNW,297,1.0,4.0,58,0.00,,,0.00,130.0,meteohub,2013-06-03 16:15:00,
2013-06-03 11:20:00,63.1,49.5,30.02,WNW,300,2.0,4.0,61,0.00,,,0.00,111.0,meteohub,2013-06-03 16:20:00,
2013-06-03 11:25:00,63.5,47.5,30.01,ESE,103,0.0,3.0,56,0.00,,,0.00,98.0,meteohub,2013-06-03 16:25:00,
2013-06-03 11:30:00,63.1,48.2,30.00,East,87,0.0,3.0,58,0.00,,,0.00,98.0,meteohub,2013-06-03 16:30:00,
2013-06-03 11:35:00,63.0,47.5,30.00,NW,319,0.0,3.0,57,0.00,,,0.00,98.0,meteohub,2013-06-03 16:35:00,
2013-06-03 11:40:00,62.8,46.9,30.01,NW,319,0.0,2.0,56,0.00,,,0.00,97.0,meteohub,2013-06-03 16:40:00,
2013-06-03 11:45:00,62.4,47.5,30.01,NNW,331,1.0,2.0,58,0.00,,,0.00,76.0,meteohub,2013-06-03 16:45:00,
2013-06-03 11:50:00,62.6,49.5,30.01,North,0,0.0,1.0,62,0.00,,,0.00,54.0,meteohub,2013-06-03 16:50:00,
2013-06-03 11:55:00,62.2,46.4,30.01,WNW,288,0.0,1.0,56,0.00,,,0.00,60.0,meteohub,2013-06-03 16:55:00,
2013-06-03 12:00:00,62.4,47.8,30.00,NE,49,0.0,2.0,59,0.00,,,0.00,63.0,meteohub,2013-06-03 17:00:00,
2013-06-03 12:05:00,62.2,47.7,29.99,NE,48,1.0,2.0,59,0.00,,,0.00,105.0,meteohub,2013-06-03 17:05:00,
2013-06-03 12:10:00,62.4,46.0,29.99,NW,316,0.0,4.0,55,0.00,,,0.00,149.0,meteohub,2013-06-03 17:10:00,
2013-06-03 12:15:00,62.2,50.0,29.99,East,89,0.0,4.0,64,0.00,,,0.00,109.0,meteohub,2013-06-03 17:15:00,
2013-06-03 12:20:00,61.2,50.5,29.98,East,89,0.0,4.0,68,0.00,,,0.00,98.0,meteohub,2013-06-03 17:20:00,
2013-06-03 12:25:00,60.4,52.2,29.99,WSW,256,0.0,3.0,74,0.00,,,0.00,70.0,meteohub,2013-06-03 17:25:00,
2013-06-03 12:30:00,59.5,51.3,29.99,WSW,256,0.0,3.0,74,0.00,,,0.00,65.0,meteohub,2013-06-03 17:30:00,
2013-06-03 12:35:00,58.8,52.0,29.99,WSW,256,0.0,2.0,78,0.00,,,0.00,65.0,meteohub,2013-06-03 17:35:00,
2013-06-03 12:40:00,58.8,53.1,29.99,WSW,256,0.0,1.0,81,0.00,,,0.00,53.0,meteohub,2013-06-03 17:40:00,
2013-06-03 12:45:00,59.2,52.3,29.99,WNW,287,0.0,1.0,78,0.00,,,0.00,76.0,meteohub,2013-06-03 17:45:00,
2013-06-03 12:50:00,59.5,49.8,29.99,North,5,1.0,1.0,70,0.00,,,0.00,100.0,meteohub,2013-06-03 17:50:00,
2013-06-03 12:55:00,60.3,52.0,29.99,NNW,343,0.0,2.0,74,0.00,,,0.00,193.0,meteohub,2013-06-03 17:55:00,
2013-06-03 13:00:00,60.4,54.0,29.99,South,176,0.0,2.0,79,0.00,,,0.00,206.0,meteohub,2013-06-03 18:00:00,
2013-06-03 13:05:00,61.2,53.6,29.99,South,176,0.0,2.0,76,0.00,,,0.00,165.0,meteohub,2013-06-03 18:05:00,
2013-06-03 13:10:00,61.5,52.0,29.98,NW,315,0.0,1.0,71,0.00,,,0.00,148.0,meteohub,2013-06-03 18:10:00,
2013-06-03 13:15:00,61.7,54.1,29.99,NW,315,0.0,1.0,76,0.00,,,0.00,141.0,meteohub,2013-06-03 18:15:00,
2013-06-03 13:20:00,61.5,51.3,29.99,NW,321,0.0,2.0,69,0.00,,,0.00,199.0,meteohub,2013-06-03 18:20:00,
2013-06-03 13:25:00,62.1,54.0,29.99,NW,321,0.0,2.0,75,0.00,,,0.00,158.0,meteohub,2013-06-03 18:25:00,
2013-06-03 13:31:00,62.8,52.5,29.99,WSW,244,0.0,3.0,69,0.00,,,0.00,188.0,meteohub,2013-06-03 18:31:00,
2013-06-03 13:36:00,62.6,53.4,29.99,WSW,244,0.0,3.0,72,0.00,,,0.00,199.0,meteohub,2013-06-03 18:36:00,
2013-06-03 13:41:00,63.1,52.9,29.99,SW,236,0.0,3.0,69,0.00,,,0.00,227.0,meteohub,2013-06-03 18:41:00,
2013-06-03 13:46:00,63.9,51.4,29.99,NW,321,0.0,3.0,64,0.00,,,0.00,350.0,meteohub,2013-06-03 18:46:00,
2013-06-03 13:51:00,64.9,48.4,29.99,NW,310,0.0,3.0,55,0.00,,,0.00,410.0,meteohub,2013-06-03 18:51:00,
2013-06-03 13:56:00,65.5,49.8,29.99,WNW,294,1.0,4.0,57,0.00,,,0.00,478.0,meteohub,2013-06-03 18:56:00,
2013-06-03 14:01:00,66.6,49.8,29.98,NNE,26,2.0,4.0,55,0.00,,,0.00,1127.0,meteohub,2013-06-03 19:01:00,
2013-06-03 14:06:00,66.9,49.3,29.98,NW,320,3.0,6.0,53,0.00,,,0.00,812.0,meteohub,2013-06-03 19:06:00,
2013-06-03 14:12:00,67.5,50.2,29.97,WNW,300,2.0,6.0,54,0.00,,,0.00,427.0,meteohub,2013-06-03 19:12:00,
2013-06-03 14:17:00,67.1,47.3,29.97,WSW,248,2.0,5.0,49,0.00,,,0.00,691.0,meteohub,2013-06-03 19:17:00,
2013-06-03 14:22:00,67.6,50.4,29.97,NW,321,2.0,6.0,54,0.00,,,0.00,577.0,meteohub,2013-06-03 19:22:00,
2013-06-03 14:27:00,67.6,48.9,29.97,NW,318,2.0,7.0,51,0.00,,,0.00,668.0,meteohub,2013-06-03 19:27:00,
2013-06-03 14:32:00,68.4,52.5,29.97,WNW,302,1.0,7.0,57,0.00,,,0.00,448.0,meteohub,2013-06-03 19:32:00,
2013-06-03 14:37:00,67.6,48.9,29.98,WNW,294,0.0,7.0,51,0.00,,,0.00,540.0,meteohub,2013-06-03 19:37:00,
2013-06-03 14:42:00,67.6,49.8,29.97,WNW,300,0.0,7.0,53,0.00,,,0.00,406.0,meteohub,2013-06-03 19:42:00,
2013-06-03 14:47:00,67.6,50.9,29.97,WNW,286,3.0,7.0,55,0.00,,,0.00,476.0,meteohub,2013-06-03 19:47:00,
2013-06-03 14:52:00,68.2,50.4,29.97,WNW,292,1.0,7.0,53,0.00,,,0.00,489.0,meteohub,2013-06-03 19:52:00,
2013-06-03 14:57:00,68.5,48.6,29.97,NNW,347,5.0,6.0,49,0.00,,,0.00,566.0,meteohub,2013-06-03 19:57:00,
2013-06-03 15:02:00,68.2,48.4,29.97,WNW,284,1.0,6.0,49,0.00,,,0.00,608.0,meteohub,2013-06-03 20:02:00,
2013-06-03 15:07:00,67.8,48.6,29.96,ENE,63,2.0,6.0,50,0.00,,,0.00,274.0,meteohub,2013-06-03 20:07:00,
2013-06-03 15:12:00,67.1,48.4,29.96,NE,34,1.0,7.0,51,0.00,,,0.00,236.0,meteohub,2013-06-03 20:12:00,
2013-06-03 15:17:00,66.7,49.6,29.94,East,88,3.0,8.0,54,0.00,,,0.00,237.0,meteohub,2013-06-03 20:17:00,
2013-06-03 15:22:00,66.6,47.8,29.94,NNW,331,1.0,8.0,51,0.00,,,0.00,220.0,meteohub,2013-06-03 20:22:00,
2013-06-03 15:27:00,66.7,48.0,29.93,SSE,160,3.0,8.0,51,0.00,,,0.00,197.0,meteohub,2013-06-03 20:27:00,
2013-06-03 15:32:00,66.6,47.3,29.93,West,263,1.0,7.0,50,0.00,,,0.00,193.0,meteohub,2013-06-03 20:32:00,
2013-06-03 15:37:00,66.6,47.8,29.93,NE,46,0.0,6.0,51,0.00,,,0.00,197.0,meteohub,2013-06-03 20:37:00,
2013-06-03 15:42:00,66.6,49.5,29.93,ESE,102,3.0,6.0,54,0.00,,,0.00,158.0,meteohub,2013-06-03 20:42:00,
2013-06-03 15:47:00,66.6,46.2,29.92,WNW,293,1.0,8.0,48,0.00,,,0.00,79.0,meteohub,2013-06-03 20:47:00,
2013-06-03 15:52:00,66.0,45.7,29.92,East,84,0.0,8.0,48,0.00,,,0.00,58.0,meteohub,2013-06-03 20:52:00,
2013-06-03 15:57:00,65.8,46.2,29.91,NW,325,1.0,8.0,49,0.00,,,0.00,70.0,meteohub,2013-06-03 20:57:00,
2013-06-03 16:02:00,65.8,46.8,29.92,East,82,0.0,6.0,50,0.00,,,0.00,88.0,meteohub,2013-06-03 21:02:00,
2013-06-03 16:07:00,66.0,45.1,29.90,NNW,329,2.0,6.0,47,0.00,,,0.00,102.0,meteohub,2013-06-03 21:07:00,
2013-06-03 16:12:00,65.8,45.0,29.88,NW,306,3.0,6.0,47,0.00,,,0.00,95.0,meteohub,2013-06-03 21:12:00,
2013-06-03 16:17:00,65.8,45.0,29.88,NE,34,1.0,8.0,47,0.00,,,0.00,134.0,meteohub,2013-06-03 21:17:00,
2013-06-03 16:22:00,66.2,45.9,29.88,NW,317,1.0,8.0,48,0.00,,,0.00,193.0,meteohub,2013-06-03 21:22:00,
2013-06-03 16:27:00,66.6,45.1,29.89,West,279,2.0,7.0,46,0.00,,,0.00,223.0,meteohub,2013-06-03 21:27:00,
2013-06-03 16:32:00,66.7,46.4,29.89,West,278,2.0,7.0,48,0.00,,,0.00,258.0,meteohub,2013-06-03 21:32:00,
2013-06-03 16:38:00,67.8,46.2,29.90,WNW,290,1.0,6.0,46,0.00,,,0.00,559.0,meteohub,2013-06-03 21:38:00,
2013-06-03 16:42:00,68.5,46.9,29.89,West,279,0.0,6.0,46,0.00,,,0.00,229.0,meteohub,2013-06-03 21:42:00,
2013-06-03 16:47:00,68.7,46.6,29.90,SW,216,0.0,7.0,45,0.00,,,0.00,264.0,meteohub,2013-06-03 21:47:00,
2013-06-03 16:52:00,69.1,45.7,29.90,WNW,294,4.0,13.0,43,0.00,,,0.00,561.0,meteohub,2013-06-03 21:52:00,
2013-06-03 16:58:00,69.1,48.0,29.90,East,81,3.0,13.0,47,0.00,,,0.00,244.0,meteohub,2013-06-03 21:58:00,
2013-06-03 17:03:00,68.4,45.7,29.90,West,264,2.0,13.0,44,0.00,,,0.00,139.0,meteohub,2013-06-03 22:03:00,
2013-06-03 17:08:00,67.6,45.0,29.90,North,355,0.0,8.0,44,0.00,,,0.00,130.0,meteohub,2013-06-03 22:08:00,
2013-06-03 17:13:00,67.5,44.8,29.90,NNE,19,3.0,8.0,44,0.00,,,0.00,199.0,meteohub,2013-06-03 22:13:00,
2013-06-03 17:18:00,67.8,45.7,29.90,ESE,121,1.0,8.0,45,0.00,,,0.00,283.0,meteohub,2013-06-03 22:18:00,
2013-06-03 17:23:00,68.2,46.6,29.90,North,355,1.0,8.0,46,0.00,,,0.00,295.0,meteohub,2013-06-03 22:23:00,
2013-06-03 17:28:00,68.2,46.0,29.90,WNW,296,2.0,8.0,45,0.00,,,0.00,202.0,meteohub,2013-06-03 22:28:00,
2013-06-03 17:33:00,67.8,46.2,29.90,NW,304,0.0,8.0,46,0.00,,,0.00,167.0,meteohub,2013-06-03 22:33:00,
2013-06-03 17:38:00,67.5,45.3,29.91,NW,311,1.0,9.0,45,0.00,,,0.00,127.0,meteohub,2013-06-03 22:38:00,
2013-06-03 17:43:00,67.5,46.0,29.91,ENE,61,1.0,9.0,46,0.00,,,0.00,81.0,meteohub,2013-06-03 22:43:00,
2013-06-03 17:48:00,67.1,46.2,29.91,ENE,67,2.0,9.0,47,0.00,,,0.00,84.0,meteohub,2013-06-03 22:48:00,
2013-06-03 17:53:00,66.7,45.3,29.91,NW,306,1.0,9.0,46,0.00,,,0.00,83.0,meteohub,2013-06-03 22:53:00,
2013-06-03 17:58:00,66.7,45.3,29.91,WNW,286,0.0,9.0,46,0.00,,,0.00,49.0,meteohub,2013-06-03 22:58:00,
2013-06-03 18:03:00,66.6,45.1,29.91,NNW,333,0.0,9.0,46,0.00,,,0.00,81.0,meteohub,2013-06-03 23:03:00,
2013-06-03 18:08:00,66.6,45.7,29.91,East,80,3.0,6.0,47,0.00,,,0.00,84.0,meteohub,2013-06-03 23:08:00,
2013-06-03 18:13:00,66.6,45.1,29.91,ENE,60,1.0,6.0,46,0.00,,,0.00,81.0,meteohub,2013-06-03 23:13:00,
2013-06-03 18:18:00,66.6,46.2,29.91,West,281,0.0,7.0,48,0.00,,,0.00,72.0,meteohub,2013-06-03 23:18:00,
2013-06-03 18:23:00,66.4,45.5,29.91,NW,313,2.0,8.0,47,0.00,,,0.00,70.0,meteohub,2013-06-03 23:23:00,
2013-06-03 18:28:00,66.2,47.5,29.91,West,273,1.0,8.0,51,0.00,,,0.00,76.0,meteohub,2013-06-03 23:28:00,
2013-06-03 18:33:00,66.4,45.0,29.91,SSE,161,1.0,8.0,46,0.00,,,0.00,72.0,meteohub,2013-06-03 23:33:00,
2013-06-03 18:38:00,66.4,45.5,29.91,NNE,25,1.0,7.0,47,0.00,,,0.00,70.0,meteohub,2013-06-03 23:38:00,
2013-06-03 18:43:00,66.4,45.5,29.91,NW,311,4.0,8.0,47,0.00,,,0.00,63.0,meteohub,2013-06-03 23:43:00,
2013-06-03 18:48:00,66.2,45.9,29.91,WSW,240,2.0,8.0,48,0.00,,,0.00,60.0,meteohub,2013-06-03 23:48:00,
2013-06-03 18:53:00,66.0,46.4,29.91,SW,222,2.0,8.0,49,0.00,,,0.00,49.0,meteohub,2013-06-03 23:53:00,
2013-06-03 18:58:00,66.0,44.1,29.91,NNE,18,0.0,7.0,45,0.00,,,0.00,39.0,meteohub,2013-06-03 23:58:00,
2013-06-03 19:03:00,65.8,43.9,29.90,ENE,59,2.0,7.0,45,0.00,,,0.00,30.0,meteohub,2013-06-04 00:03:00,
2013-06-03 19:08:00,65.7,46.0,29.91,North,349,2.0,7.0,49,0.00,,,0.00,26.0,meteohub,2013-06-04 00:08:00,
2013-06-03 19:13:00,65.1,44.4,29.91,NNW,342,0.0,7.0,47,0.00,,,0.00,21.0,meteohub,2013-06-04 00:13:00,
2013-06-03 19:18:00,65.5,43.5,29.91,NNW,344,7.0,7.0,45,0.00,,,0.00,23.0,meteohub,2013-06-04 00:18:00,
2013-06-03 19:23:00,65.5,43.5,29.91,WNW,296,4.0,9.0,45,0.00,,,0.00,26.0,meteohub,2013-06-04 00:23:00,
2013-06-03 19:28:00,65.5,43.0,29.91,NNW,346,1.0,9.0,44,0.00,,,0.00,28.0,meteohub,2013-06-04 00:28:00,
2013-06-03 19:33:00,65.5,43.5,29.91,West,270,1.0,9.0,45,0.00,,,0.00,28.0,meteohub,2013-06-04 00:33:00,
2013-06-03 19:38:00,65.5,43.5,29.91,NNW,327,0.0,6.0,45,0.00,,,0.00,26.0,meteohub,2013-06-04 00:38:00,
2013-06-03 19:43:00,65.1,45.0,29.92,SSW,207,3.0,6.0,48,0.00,,,0.00,21.0,meteohub,2013-06-04 00:43:00,
2013-06-03 19:48:00,64.9,43.2,29.92,NNW,331,3.0,5.0,45,0.00,,,0.00,18.0,meteohub,2013-06-04 00:48:00,
2013-06-03 19:53:00,65.1,43.3,29.92,WSW,238,0.0,8.0,45,0.00,,,0.00,14.0,meteohub,2013-06-04 00:53:00,
2013-06-03 19:59:00,64.9,43.7,29.93,West,275,2.0,8.0,46,0.00,,,0.00,12.0,meteohub,2013-06-04 00:59:00,
2013-06-03 20:04:00,64.9,43.7,29.93,WNW,293,1.0,8.0,46,0.00,,,0.00,11.0,meteohub,2013-06-04 01:04:00,
2013-06-03 20:09:00,64.8,44.1,29.94,NW,315,3.0,6.0,47,0.00,,,0.00,9.0,meteohub,2013-06-04 01:09:00,
2013-06-03 20:14:00,64.8,43.5,29.94,West,270,0.0,5.0,46,0.00,,,0.00,9.0,meteohub,2013-06-04 01:14:00,
2013-06-03 20:19:00,64.8,43.0,29.94,West,262,0.0,5.0,45,0.00,,,0.00,7.0,meteohub,2013-06-04 01:19:00,
2013-06-03 20:24:00,64.8,43.5,29.94,North,349,1.0,6.0,46,0.00,,,0.00,7.0,meteohub,2013-06-04 01:24:00,
2013-06-03 20:29:00,64.6,43.9,29.94,NNW,343,0.0,6.0,47,0.00,,,0.00,5.0,meteohub,2013-06-04 01:29:00,
2013-06-03 20:34:00,64.6,43.3,29.95,SSW,205,1.0,6.0,46,0.00,,,0.00,5.0,meteohub,2013-06-04 01:34:00,
2013-06-03 20:39:00,64.8,43.5,29.95,NNW,342,0.0,6.0,46,0.00,,,0.00,5.0,meteohub,2013-06-04 01:39:00,
2013-06-03 20:44:00,64.8,44.1,29.95,NW,309,1.0,6.0,47,0.00,,,0.00,0.0,meteohub,2013-06-04 01:44:00,
2013-06-03 20:49:00,64.4,44.2,29.95,West,280,0.0,6.0,48,0.00,,,0.00,0.0,meteohub,2013-06-04 01:49:00,
2013-06-03 20:54:00,64.0,45.5,29.95,ENE,62,1.0,4.0,51,0.00,,,0.00,0.0,meteohub,2013-06-04 01:54:00,
2013-06-03 20:59:00,63.9,46.4,29.95,ENE,62,0.0,4.0,53,0.00,,,0.00,0.0,meteohub,2013-06-04 01:59:00,
2013-06-03 21:04:00,63.7,44.8,29.95,West,281,0.0,3.0,50,0.00,,,0.00,0.0,meteohub,2013-06-04 02:04:00,
2013-06-03 21:09:00,63.7,44.8,29.95,WNW,294,2.0,3.0,50,0.00,,,0.00,0.0,meteohub,2013-06-04 02:09:00,
2013-06-03 21:14:00,63.9,44.8,29.95,WSW,255,0.0,4.0,50,0.00,,,0.00,0.0,meteohub,2013-06-04 02:14:00,
2013-06-03 21:19:00,63.7,45.7,29.95,West,266,2.0,5.0,52,0.00,,,0.00,0.0,meteohub,2013-06-04 02:19:00,
2013-06-03 21:24:00,63.7,46.8,29.95,SSW,209,0.0,5.0,54,0.00,,,0.00,0.0,meteohub,2013-06-04 02:24:00,
2013-06-03 21:29:00,63.7,45.1,29.95,West,259,1.0,5.0,51,0.00,,,0.00,0.0,meteohub,2013-06-04 02:29:00,
2013-06-03 21:34:00,63.7,45.1,29.96,West,270,0.0,5.0,51,0.00,,,0.00,0.0,meteohub,2013-06-04 02:34:00,
2013-06-03 21:39:00,63.7,46.2,29.96,NW,313,1.0,5.0,53,0.00,,,0.00,0.0,meteohub,2013-06-04 02:39:00,
2013-06-03 21:44:00,63.5,45.5,29.96,WSW,257,0.0,4.0,52,0.00,,,0.00,0.0,meteohub,2013-06-04 02:44:00,
2013-06-03 21:49:00,63.7,45.7,29.96,West,267,0.0,4.0,52,0.00,,,0.00,0.0,meteohub,2013-06-04 02:49:00,
2013-06-03 21:54:00,63.3,45.3,29.96,WNW,296,2.0,5.0,52,0.00,,,0.00,0.0,meteohub,2013-06-04 02:54:00,
2013-06-03 21:59:00,63.3,46.9,29.96,South,183,0.0,6.0,55,0.00,,,0.00,0.0,meteohub,2013-06-04 02:59:00,
2013-06-03 22:04:00,63.3,46.9,29.96,East,101,0.0,6.0,55,0.00,,,0.00,0.0,meteohub,2013-06-04 03:04:00,
2013-06-03 22:09:00,63.1,46.8,29.96,WNW,287,0.0,6.0,55,0.00,,,0.00,0.0,meteohub,2013-06-04 03:09:00,
2013-06-03 22:14:00,62.8,46.9,29.96,West,267,2.0,5.0,56,0.00,,,0.00,0.0,meteohub,2013-06-04 03:14:00,
2013-06-03 22:19:00,63.1,46.2,29.96,WNW,288,3.0,4.0,54,0.00,,,0.00,0.0,meteohub,2013-06-04 03:19:00,
2013-06-03 22:24:00,63.1,47.1,29.95,NNW,341,6.0,6.0,56,0.00,,,0.00,0.0,meteohub,2013-06-04 03:24:00,
2013-06-03 22:29:00,62.8,46.4,29.94,WNW,289,5.0,6.0,55,0.00,,,0.00,0.0,meteohub,2013-06-04 03:29:00,
2013-06-03 22:34:00,62.8,46.4,29.94,NW,316,1.0,6.0,55,0.00,,,0.00,0.0,meteohub,2013-06-04 03:34:00,
2013-06-03 22:39:00,62.6,46.8,29.94,West,269,0.0,7.0,56,0.00,,,0.00,0.0,meteohub,2013-06-04 03:39:00,
2013-06-03 22:44:00,62.2,46.4,29.93,NNW,345,1.0,7.0,56,0.00,,,0.00,0.0,meteohub,2013-06-04 03:44:00,
2013-06-03 22:49:00,62.4,46.6,29.93,NNW,342,4.0,7.0,56,0.00,,,0.00,0.0,meteohub,2013-06-04 03:49:00,
2013-06-03 22:54:00,62.2,46.8,29.93,SE,140,1.0,7.0,57,0.00,,,0.00,0.0,meteohub,2013-06-04 03:54:00,
2013-06-03 22:59:00,62.2,45.9,29.93,WNW,298,1.0,8.0,55,0.00,,,0.00,0.0,meteohub,2013-06-04 03:59:00,
2013-06-03 23:01:00,62.2,46.8,29.93,WNW,302,0.0,8.0,57,0.00,,,0.00,0.0,meteohub,2013-06-04 04:01:00,
2013-06-03 23:02:00,62.2,46.4,29.93,West,281,2.0,8.0,56,0.00,,,0.00,0.0,meteohub,2013-06-04 04:02:00,
2013-06-03 23:07:00,62.1,46.6,29.93,SSW,196,0.0,8.0,57,0.00,,,0.00,0.0,meteohub,2013-06-04 04:07:00,
2013-06-03 23:12:00,61.9,46.4,29.93,West,262,2.0,8.0,57,0.00,,,0.00,0.0,meteohub,2013-06-04 04:12:00,
2013-06-03 23:17:00,61.5,46.6,29.93,WNW,291,2.0,8.0,58,0.00,,,0.00,0.0,meteohub,2013-06-04 04:17:00,
2013-06-03 23:22:00,61.3,46.4,29.93,West,271,0.0,6.0,58,0.00,,,0.00,0.0,meteohub,2013-06-04 04:22:00,
2013-06-03 23:27:00,61.3,46.4,29.93,SSW,196,0.0,5.0,58,0.00,,,0.00,0.0,meteohub,2013-06-04 04:27:00,
2013-06-03 23:32:00,61.2,47.1,29.93,West,263,2.0,4.0,60,0.00,,,0.00,0.0,meteohub,2013-06-04 04:32:00,
2013-06-03 23:37:00,61.0,46.6,29.93,East,100,0.0,4.0,59,0.00,,,0.00,0.0,meteohub,2013-06-04 04:37:00,
2013-06-03 23:42:00,60.6,47.1,29.92,ENE,57,2.0,4.0,61,0.00,,,0.00,0.0,meteohub,2013-06-04 04:42:00,
2013-06-03 23:47:00,60.4,46.9,29.93,NNE,32,0.0,5.0,61,0.00,,,0.00,0.0,meteohub,2013-06-04 04:47:00,
2013-06-03 23:52:00,60.3,46.8,29.92,NNE,12,1.0,5.0,61,0.00,,,0.00,0.0,meteohub,2013-06-04 04:52:00,
2013-06-03 23:57:00,60.3,46.8,29.91,NW,304,2.0,5.0,61,0.00,,,0.00,0.0,meteohub,2013-06-04 04:57:00,